PST,Max TemperatureF,Mean TemperatureF,Min TemperatureF,Max Dew PointF,MeanDew PointF,Min DewpointF,Max Humidity, Mean Humidity, Min Humidity, Max Sea Level PressureIn, Mean Sea Level PressureIn, Min Sea Level PressureIn, Max VisibilityMiles, Mean VisibilityMiles, Min VisibilityMiles, Max Wind SpeedMPH, Mean Wind SpeedMPH, Max Gust SpeedMPH,PrecipitationIn, CloudCover, Events, WindDirDegrees
2013-11-1,79,62,45,56,44,34,83,51,19,30.12,30.05,29.98,10,10,10,10,3,,0.00,0,,211
2013-11-2,78,64,50,56,44,32,96,62,27,30.00,29.94,29.90,10,9,0,13,4,15,0.00,0,Fog,237
2013-11-3,68,57,45,54,50,41,93,76,58,29.94,29.89,29.83,10,9,2,12,3,14,0.00,3,,201
2013-11-4,69,61,52,53,51,48,89,74,58,29.98,29.87,29.81,10,9,7,12,4,15,0.00,3,,56
2013-11-5,77,62,47,46,23,11,86,47,8,30.18,30.10,29.98,10,10,10,31,12,41,0.00,0,,46
2013-11-6,84,66,47,39,23,10,59,33,6,30.22,30.17,30.13,10,10,10,28,9,36,0.00,0,,80
2013-11-7,85,68,50,48,30,19,60,35,10,30.14,30.08,30.01,10,10,10,14,4,17,0.00,0,,76
2013-11-8,74,59,44,58,45,29,93,60,26,30.05,30.00,29.94,10,10,8,14,3,16,0.00,1,,250
2013-11-9,68,56,44,56,48,38,93,76,58,30.10,30.06,30.01,10,10,7,12,4,15,0.00,0,,206
2013-11-10,82,64,45,54,47,34,89,54,19,30.13,30.10,30.07,10,10,9,18,6,22,0.00,0,,24
2013-11-11,73,58,43,54,45,37,89,62,34,30.16,30.11,30.07,10,10,9,14,4,15,0.00,0,,297
2013-11-12,76,63,50,56,49,45,89,64,38,30.19,30.13,30.10,10,10,10,18,3,21,0.00,0,,26
2013-11-13,92,70,48,52,40,24,83,46,9,30.09,29.99,29.94,10,10,10,16,5,20,0.00,0,,309
2013-11-14,82,67,52,56,48,34,93,58,23,29.95,29.86,29.78,10,8,4,15,4,17,0.00,2,,271
2013-11-15,68,60,51,55,53,49,100,79,58,29.79,29.74,29.69,10,6,0,10,5,,0.00,5,Fog,69
2013-11-16,,,,,,,,,,29.93,29.84,29.73,10,10,10,9,9,,0.00,8,,280
2013-11-17,,,,,,,,,,30.09,30.02,29.94,10,10,10,12,6,,0.00,0,,240
2013-11-18,66,60,53,52,51,49,89,74,58,30.16,30.10,30.06,10,10,9,10,6,,0.00,2,,266
2013-11-19,65,58,50,54,50,47,89,75,60,30.10,30.04,29.98,10,10,8,10,4,14,0.00,3,,332
2013-11-20,66,59,52,58,54,48,93,78,63,29.99,29.92,29.87,10,7,2,12,5,14,0.21,6,Rain,89
2013-11-21,64,61,57,58,55,41,100,79,57,29.91,29.86,29.83,10,8,2,23,6,29,0.19,7,Rain,306
2013-11-22,64,60,55,40,37,36,55,47,39,30.01,29.94,29.89,10,10,10,35,23,47,T,3,Rain,70
2013-11-23,67,61,54,39,38,35,55,44,32,30.12,30.06,30.00,10,10,10,28,16,35,0.00,2,,71
2013-11-24,70,58,46,47,41,36,77,54,30,30.23,30.17,30.11,10,10,10,22,8,29,0.00,0,,87
2013-11-25,71,57,43,52,42,37,83,58,33,30.26,30.22,30.19,10,10,10,14,5,16,0.00,0,,183
2013-11-26,68,56,43,53,45,38,83,61,39,30.20,30.14,30.05,10,10,10,13,3,14,0.00,0,,228
2013-11-27,77,64,50,55,45,32,93,56,19,30.05,29.94,29.88,10,6,0,17,7,21,0.00,1,Fog,79
2013-11-28,70,59,47,54,46,36,93,61,28,30.06,29.97,29.91,10,9,1,14,4,20,0.00,5,,90
2013-11-29,71,62,53,52,49,45,89,67,44,30.21,30.14,30.07,10,10,7,21,6,31,0.16,6,Rain,76
2013-11-30,74,60,45,49,44,38,86,59,31,30.21,30.17,30.10,10,10,10,13,3,15,0.00,0,,298